Showing default

TOMORROW-S4, 62386

Orbit data source: Space-Track

TOMORROW-S4, 62386 is a payload satellite owned by Tomorrow.io (US) in LEO that was launched on Sat, 21 Dec 2024 UTC via an FALCON 9 launch vehicle from the Air Force Western Test Range (AFWTR). Payload-class satellites include a variety of spacecraft equipped with specific instruments for various scientific and technological missions. These include communications satellites like Starlink; space stations such as the ISS; scientific satellites like the Hubble; Earth observation satellites from companies like Planet Labs, Umbra, and HawkEye 360; GPS; miniature CubeSats for education and research; and military/defense satellites.

Loading next visibility...
Identifier
62386, 2024-247K
Orbit
LEO
Country
Flag of USUS
Related business
Manufacturer
Blue Canyon
Mission
Operational Commercial Weather
Bus & Motor
CUBESAT 6U, Unknown motor
Mass
12 kg wet, 12 kg dry
Launch date (UTC)
2024-12-21 (1 year ago)
Launch vehicle
FALCON 9
Launch site
Air Force Western Test Range (AFWTR)
Object type
Payload
Rocket body
Debris
Shape & HBR
Box + 2 Pan, 1.0 m
Radar Cross Section
0.138 m², Small (<0.1 m²)

Expand to show TLE details & history
Last TLE update: 11 hours ago

TLE from 11 hours ago
0 TOMORROW-S4
1 62386U 24247K   26036.74707491  .00011505  00000-0  43537-3 0  9997
2 62386  44.9851 291.5169 0003795 352.5045   7.5780 15.27071500 62844
Epoch: 2026-02-05T17:55Z
TLE epoch observation values (Epoch: 2026-02-05T17:55:47.272Z)
Latitude
-0.00003°
Longitude
-113.32497°
Altitude
481.988 km
Speed
7.628 km/s
True Right ascension
19h 26m 04s
True Declination
0° 00' 00"
Sunlit
Object was in daylight at epoch
Visualization orbit readout
Latitude
Unknown
Longitude
Unknown
Altitude
Unknown
Speed
Unknown
Apparent Right ascension
Unknown
Apparent Declination
Unknown
Sunlit
N/A
Visualization observer readout
Local Sidereal Time
06:37:52
Azimuth
Unknown
Elevation
Unknown
Doppler factor
Unknown
Orbital elements
Apogee altitude
488.789 km
Perigee altitude
483.579 km
Semi-major axis
6,864.321 km
Eccentricity
0.00038
Inclination
44.9851°
RAAN
291.5169°
Arg. of periapsis
352.5045°
True anomaly
7.58374°
Mean anomaly
7.578°
Eccentric anomaly
7.58087°
Mean motion
3.81634 °/min
Orbital period
94.33 mins
BSTAR
0.00043537
Loading maneuver chart data...
Computing Atmospheric mass density...
Loading historical data...
Loading historical data...
Loading historical data...
Loading historical data...
Loading historical data...
Loading historical data...
Loading historical data...

Documentation

Showing up to 5 results
|